Temperature
18 18 18 18 18 18 18 18 18 18 18 18 18 18 18 18 18 18 18 18 18 18 18 18 18 17 17 17 17 17 17 17 17 17 17 17 17 17 16 16 16 16 16
18 18 18 18 18 18 18 18 18 18 18 18 18 18 18 18 18 18 18 18 18 18 18 18 18 17 17 17 17 17 17 17 17 17 17 17 17 17 16 16 16 16 16
18 18 18 18 18 18 18 18 18 18 18 18 18 18 18 18 18 18 18 18 18 18 18 18 18 17 17 17 17 17 17 17 17 17 17 17 17 17 16 16 16 16 16
18 18 18 18 18 18 18 18 18 18 18 18 18 18 18 18 18 18 18 18 18 18 18 18 18 18 18 17 17 17 17 17 17 17 17 17 17 17 17 16 16 16 16
18 18 18 18 18 18 18 18 18 18 18 18 18 18 18 18 19 19 19 19 18 18 18 18 18 18 18 17 17 17 17 17 17 17 17 17 17 17 17 16 16 16 16
18 18 18 18 18 18 18 18 18 18 18 18 18 18 18 19 19 19 19 19 19 18 18 18 18 18 18 18 17 17 17 17 17 17 17 17 17 17 16 16 16 16 16
19 18 18 18 18 18 18 18 18 18 18 18 18 18 18 19 19 19 19 19 18 18 18 18 18 18 18 18 17 17 17 17 17 17 17 17 17 17 16 16 16 16 16
19 19 18 18 18 18 18 18 18 18 18 18 18 18 18 18 18 19 19 18 18 18 18 18 18 18 18 18 17 17 17 17 17 17 17 17 17 17 17 16 16 16 16
19 19 18 19 18 18 18 18 18 18 18 18 18 18 18 18 18 18 18 18 18 18 18 18 18 18 18 18 18 17 17 17 17 17 17 17 17 17 16 16 16 16 16
19 19 19 19 18 18 18 18 18 18 18 18 18 18 18 18 18 18 18 18 18 18 18 18 18 18 18 18 18 17 17 17 17 17 17 17 17 17 16 16 16 16 16
19 19 19 19 18 18 18 18 18 18 18 18 18 18 18 18 18 17 17 18 18 18 18 18 18 18 18 18 17 17 17 17 17 17 17 17 17 17 16 16 16 16 16
19 19 19 19 18 18 18 18 18 18 18 18 18 18 18 18 18 18 17 18 18 18 18 18 18 18 17 17 17 17 17 17 17 17 17 17 17 16 16 16 16 16 16
19 19 19 18 18 18 18 18 18 18 18 18 18 18 18 17 17 17 17 17 17 18 18 18 18 17 17 17 17 17 17 17 17 17 16 16 16 16 16 16 16 16 16
18 18 18 18 18 18 18 18 18 18 18 18 17 17 17 17 17 17 17 17 17 17 17 17 18 17 17 17 17 17 17 16 16 16 16 16 16 16 16 16 16 16 16
18 18 18 18 18 18 18 18 18 18 17 17 17 17 17 17 17 17 17 17 16 16 17 17 17 17 17 17 17 17 16 16 16 16 16 16 16 16 16 16 16 16 15
18 18 18 18 18 18 18 17 17 17 17 17 17 17 17 17 17 17 16 16 16 16 16 16 16 16 17 17 16 16 16 16 16 16 16 16 16 16 16 16 15 15 15
18 18 18 18 18 18 17 17 17 17 17 17 17 17 17 17 16 16 16 16 16 16 16 16 16 16 16 16 16 16 16 16 16 16 16 16 16 16 15 15 15 15 15
18 18 18 18 17 17 17 17 17 17 17 17 16 16 16 16 16 16 16 16 16 16 15 15 16 16 16 16 16 16 16 16 15 15 15 15 15 15 15 15 15 15 15
17 17 17 17 17 17 17 17 16 16 16 16 16 16 16 16 16 16 16 16 15 15 15 15 15 16 16 16 16 16 16 15 15 15 15 15 15 15 15 15 15 15 15
17 17 17 17 17 16 16 16 16 16 16 16 16 16 15 15 15 15 15 15 15 15 15 15 15 15 15 15 15 15 15 15 15 15 15 15 15 15 15 15 14 14 14
17 17 17 16 16 16 16 16 15 15 15 15 15 15 15 15 15 15 15 15 15 15 15 15 15 15 15 15 15 15 14 15 15 14 14 14 14 14 14 14 14 14 14
17 17 16 16 16 16 15 15 15 15 15 15 15 15 15 15 14 14 14 14 14 14 14 14 14 14 14 14 14 14 14 14 14 14 14 14 14 14 14 14 14 14 14
17 16 16 16 16 15 15 15 15 15 15 14 14 14 14 14 14 14 14 14 14 14 14 13 13 13 14 14 14 14 13 13 13 14 13 13 13 13 13 13 13 13 13
16 16 16 15 15 15 15 15 15 14 14 14 14 14 14 14 14 13 13 13 13 13 13 13 13 13 13 13 13 13 13 13 13 13 13 13 13 13 13 13 13 13 13
16 15 15 15 15 14 14 14 14 14 14 14 13 13 13 13 13 13 13 13 13 13 13 13 13 13 13 13 13 13 13 13 13 13 13 12 12 13 12 12 12 12 12
15 15 14 14 14 14 14 14 14 13 13 13 13 13 13 13 13 12 12 12 12 12 12 12 12 12 12 13 13 12 12 12 12 12 12 12 12 12 11 12 12 12 12
Wind_Speed
1 1 1 2 2 2 1 2 1 2 2 2 2 2 3 4 4 5 6 8 9 10 10 11 11 11 10 10 10 9 10 10 10 10 10 9 9 9 9 8 8 8 8
2 1 1 1 2 2 2 2 2 2 2 2 2 2 3 4 4 5 5 6 9 10 10 10 11 11 10 10 10 10 10 10 10 10 10 10 10 10 9 9 8 8 8
3 2 1 1 3 3 3 2 1 1 1 1 2 2 2 3 4 5 5 5 6 8 9 10 10 10 10 10 10 11 11 10 10 10 10 10 10 10 10 9 9 8 8
4 3 1 2 3 2 2 1 1 1 1 1 2 2 2 2 3 4 5 5 6 6 8 9 10 11 11 10 11 11 11 11 11 11 11 11 11 11 10 10 10 9 9
5 4 2 3 3 1 1 1 1 1 1 1 2 2 2 2 3 3 3 4 5 6 6 7 8 10 11 11 11 11 11 11 11 12 12 12 12 12 11 11 10 10 10
4 4 3 3 2 1 1 1 1 1 1 1 2 2 2 2 2 2 3 3 4 5 6 6 6 7 10 11 11 11 11 11 12 12 13 13 13 13 12 12 11 11 11
4 3 2 1 1 1 1 1 1 0 1 0 0 2 3 2 1 1 2 2 3 4 5 6 6 6 7 9 11 12 12 11 12 12 13 13 14 13 13 12 12 12 11
4 4 3 2 2 2 1 1 1 1 1 0 1 0 2 3 2 1 1 1 2 2 3 5 6 6 7 6 8 10 11 11 11 11 11 13 13 13 13 13 12 12 12
4 3 3 3 2 2 2 2 2 2 1 1 1 2 1 2 2 2 1 1 1 1 2 3 4 6 7 7 8 10 11 11 11 11 11 12 12 13 13 12 12 12 12
2 3 3 3 2 2 3 3 2 2 2 2 1 1 2 2 1 2 2 2 2 2 3 3 3 4 6 7 8 9 10 10 11 11 11 11 10 10 11 12 12 12 12
2 2 2 2 2 3 3 3 2 2 2 2 2 1 1 1 2 2 3 3 2 2 2 2 2 3 5 6 7 8 9 10 10 11 10 10 10 10 11 12 12 13 13
2 1 2 2 2 2 3 3 3 2 2 3 2 2 2 2 2 3 3 3 3 2 2 2 2 2 3 4 6 8 8 9 9 9 9 9 10 10 10 11 11 12 12
1 1 1 1 2 2 2 2 2 2 2 2 2 2 2 3 2 2 3 2 2 2 2 2 2 2 3 3 4 6 6 7 7 8 8 9 10 10 10 10 10 11 11
2 1 1 1 1 1 1 1 1 2 2 2 2 2 2 2 2 3 3 2 2 2 2 3 2 3 3 3 4 4 4 6 7 7 8 9 10 10 10 10 9 10 11
2 1 1 1 1 1 1 1 1 1 1 1 2 2 1 1 1 2 2 3 3 2 3 3 2 2 3 4 4 4 5 6 7 8 8 9 9 9 8 8 8 9 10
1 1 1 1 1 1 1 1 1 1 1 1 1 0 1 1 1 1 2 2 3 3 3 2 3 3 3 3 4 4 4 5 6 7 7 7 8 8 8 8 8 8 9
1 1 2 2 1 1 1 1 1 1 1 1 1 0 1 1 1 1 1 1 2 3 4 4 2 3 2 3 3 3 3 3 4 5 6 7 7 8 8 8 8 8 8
1 1 1 1 1 1 1 1 1 1 1 1 1 1 1 1 1 1 1 2 2 2 3 4 3 2 3 3 3 3 3 2 3 4 5 5 6 7 7 8 8 8 8
1 1 1 1 1 1 1 1 1 1 1 1 1 1 2 1 2 2 2 2 2 2 2 3 3 2 2 2 2 2 2 2 3 3 3 3 4 5 6 7 7 7 8
2 1 1 1 1 0 1 1 1 0 1 1 1 2 2 2 3 3 2 2 2 2 2 2 3 3 3 2 2 2 2 2 2 3 2 2 3 3 5 6 7 7 8
2 2 2 1 1 1 1 0 1 1 0 1 1 1 1 1 2 2 2 2 2 2 2 2 3 2 3 2 2 2 3 2 2 1 1 2 1 1 3 4 6 7 7
1 1 1 1 1 0 0 1 2 1 1 1 1 2 3 2 3 2 2 2 2 2 3 2 3 3 4 4 3 2 2 2 2 1 1 2 1 2 2 2 3 4 5
2 2 2 1 1 1 1 1 2 1 1 1 2 2 2 2 2 2 3 3 3 3 4 4 4 5 5 4 3 3 2 2 3 2 1 2 2 2 2 2 2 3 3
2 2 2 2 1 1 1 1 1 1 1 2 2 2 2 3 3 2 2 3 4 4 4 4 4 5 5 5 4 4 3 3 3 2 1 2 2 2 2 2 0 2 3
2 2 2 2 2 2 3 3 3 1 1 2 3 2 2 3 3 2 2 3 4 4 4 3 4 5 5 4 3 2 2 2 3 2 1 1 1 1 1 1 1 0 2
3 2 2 2 2 3 3 3 3 2 1 2 2 2 2 3 3 3 2 2 4 5 4 4 4 4 4 3 2 3 3 3 2 2 1 1 1 0 1 1 1 1 0
Wind_Direction
244 286 303 310 318 322 313 303 287 284 286 293 280 251 240 235 235 238 241 238 229 226 224 222 219 219 220 219 220 217 214 215 214 213 214 216 220 222 222 222 223 227 231
233 234 272 306 303 296 282 276 275 275 286 285 284 272 252 239 233 235 240 243 235 228 226 223 219 219 219 221 220 221 220 222 220 218 219 219 220 224 226 224 224 226 222
225 227 243 264 276 279 272 278 298 313 294 294 294 284 262 242 237 232 234 236 235 232 227 228 224 220 221 225 225 223 222 226 224 221 220 220 219 221 225 227 228 226 223
224 213 216 250 265 267 255 253 276 298 293 296 299 299 285 254 249 240 231 230 230 232 231 230 226 226 228 230 232 231 225 224 225 225 224 223 223 224 227 228 229 227 226
226 205 208 236 243 235 238 240 232 225 267 291 290 286 285 266 259 251 236 234 232 233 234 238 236 234 234 235 236 235 232 227 227 228 228 227 226 227 228 229 227 228 229
236 216 219 235 217 207 235 227 242 250 246 265 298 309 303 285 266 260 248 236 231 232 232 231 235 238 238 238 236 236 237 234 232 231 230 228 227 227 228 231 230 231 231
235 216 227 220 195 206 230 231 213 260 304 270 24 334 332 332 314 266 248 238 236 234 228 224 224 229 236 238 240 240 239 237 234 234 233 230 227 226 226 228 231 232 231
229 219 206 211 199 203 226 222 183 184 275 134 146 56 345 349 350 339 305 251 250 233 232 234 227 227 233 236 241 239 238 238 238 234 232 232 228 226 226 226 228 231 231
231 225 210 203 204 199 218 227 204 194 223 248 173 168 169 255 304 326 321 306 286 260 253 246 236 232 233 236 243 242 238 236 238 236 233 231 230 228 227 227 228 229 227
237 227 217 209 210 212 223 236 217 206 203 235 222 206 202 193 210 308 318 312 302 280 278 273 261 245 239 240 243 242 242 240 241 239 234 228 224 223 226 232 234 233 232
258 232 218 214 214 217 221 222 219 214 215 224 217 202 197 204 208 213 283 309 319 296 287 275 272 262 252 245 243 242 241 242 242 239 234 227 222 221 225 231 236 237 234
279 270 223 224 221 217 223 221 213 208 218 222 216 204 192 196 202 200 234 266 285 287 286 271 264 269 268 263 257 250 239 236 237 232 228 228 227 227 230 234 238 239 237
266 273 236 237 240 234 229 218 208 220 220 219 222 224 218 224 209 193 207 241 265 287 290 270 257 264 264 260 268 261 247 238 233 228 229 230 228 228 231 235 240 241 238
241 257 229 235 246 244 236 202 206 228 218 222 231 226 228 239 214 203 202 206 254 288 279 269 266 257 266 257 260 258 262 249 234 228 230 230 228 227 230 233 236 240 237
240 245 239 243 250 239 233 199 205 232 218 234 241 236 239 263 233 222 214 211 209 254 276 266 262 265 266 262 261 256 257 255 244 240 238 236 234 228 229 233 234 239 235
246 236 239 229 249 261 246 205 215 213 180 251 247 249 280 284 296 266 233 229 216 216 249 263 253 271 278 280 266 267 266 265 253 248 243 240 238 233 228 229 235 238 234
219 231 232 224 231 239 222 192 211 182 186 287 326 282 284 292 293 303 277 254 237 222 245 270 260 275 276 281 296 287 283 279 273 259 249 242 237 232 228 227 230 234 230
201 211 213 213 231 232 212 192 217 200 193 235 270 292 294 283 285 281 268 267 260 239 240 269 289 295 281 288 290 290 299 296 286 285 264 250 237 230 227 224 224 226 226
172 151 132 149 216 210 198 202 209 217 212 228 245 252 269 271 281 276 264 265 270 268 242 251 282 293 292 309 307 304 304 304 302 305 283 257 238 227 228 229 228 227 224
170 183 179 170 152 183 205 199 193 193 255 284 274 255 258 249 260 266 264 262 261 268 260 259 271 285 286 297 298 289 301 302 308 332 322 289 250 234 236 236 234 233 229
184 181 164 172 168 163 203 164 172 175 231 313 324 308 294 289 281 266 276 267 260 258 269 268 271 279 286 288 279 275 280 297 301 323 306 304 303 284 266 251 239 232 226
157 143 168 200 199 233 239 179 174 182 206 255 301 310 308 319 317 315 301 287 257 253 259 257 262 266 272 271 276 277 284 303 298 309 291 306 311 284 290 275 246 221 218
168 176 199 197 216 234 201 197 195 173 212 253 272 291 302 313 325 322 329 327 312 280 240 237 254 261 263 261 263 266 248 246 262 280 262 294 297 285 298 290 242 211 202
182 199 213 215 227 270 266 235 209 189 232 257 261 262 269 287 295 306 315 319 307 296 270 249 253 265 268 261 241 245 251 253 272 276 228 270 291 286 310 338 320 196 194
190 211 222 211 213 256 247 223 182 194 235 270 276 275 263 274 288 291 291 298 306 305 302 288 274 276 280 282 257 237 241 249 279 287 219 228 274 290 309 319 359 204 213
193 198 226 234 231 253 252 227 189 185 225 276 293 293 278 274 292 297 270 268 283 295 309 319 322 321 313 315 276 230 224 225 247 265 225 203 234 299 309 305 342 7 359
Height
1555 1556 1556 1557 1557 1557 1557 1557 1557 1557 1557 1558 1558 1558 1558 1558 1559 1559 1559 1560 1560 1560 1560 1561 1561 1561 1562 1562 1563 1563 1564 1564 1565 1566 1566 1567 1568 1568 1569 1570 1570 1571 1572
1556 1556 1556 1557 1556 1556 1556 1557 1557 1557 1557 1557 1557 1557 1557 1557 1557 1558 1558 1559 1559 1559 1559 1559 1560 1560 1560 1561 1561 1562 1562 1563 1563 1564 1565 1565 1566 1567 1567 1568 1569 1569 1570
1556 1556 1556 1556 1556 1556 1556 1556 1557 1557 1556 1556 1556 1556 1556 1556 1556 1557 1557 1557 1558 1558 1558 1558 1558 1558 1558 1559 1559 1560 1560 1561 1562 1562 1563 1563 1564 1565 1565 1566 1567 1567 1568
1556 1556 1556 1556 1556 1556 1556 1556 1556 1556 1556 1555 1555 1555 1555 1555 1555 1556 1556 1556 1556 1557 1557 1556 1557 1557 1557 1557 1557 1558 1558 1559 1560 1560 1561 1561 1562 1562 1563 1564 1564 1565 1565
1555 1556 1555 1555 1555 1555 1555 1555 1555 1555 1555 1554 1554 1554 1554 1554 1554 1554 1555 1555 1555 1555 1555 1555 1555 1555 1555 1555 1555 1555 1556 1556 1557 1558 1558 1559 1559 1560 1560 1561 1562 1562 1563
1555 1555 1555 1555 1554 1554 1554 1554 1554 1554 1554 1553 1553 1553 1553 1553 1553 1553 1553 1553 1553 1553 1553 1553 1553 1553 1553 1553 1553 1553 1553 1554 1554 1555 1555 1556 1556 1557 1558 1559 1559 1560 1560
1554 1554 1554 1553 1553 1553 1553 1553 1553 1553 1553 1552 1552 1552 1552 1551 1551 1551 1551 1551 1551 1551 1551 1551 1551 1550 1550 1550 1550 1551 1551 1551 1551 1552 1552 1553 1554 1554 1555 1556 1556 1557 1558
1552 1552 1552 1552 1552 1552 1552 1552 1552 1551 1551 1551 1551 1550 1550 1551 1550 1550 1550 1550 1550 1549 1549 1549 1548 1548 1548 1548 1548 1548 1548 1548 1549 1549 1549 1550 1550 1551 1552 1552 1553 1554 1554
1550 1550 1550 1550 1550 1550 1550 1550 1550 1550 1549 1550 1550 1550 1549 1548 1548 1548 1548 1548 1548 1547 1547 1547 1546 1546 1546 1545 1545 1546 1546 1545 1546 1546 1546 1547 1547 1548 1548 1549 1550 1551 1551
1548 1548 1548 1548 1548 1548 1548 1548 1548 1547 1548 1547 1547 1547 1548 1547 1547 1546 1547 1546 1546 1545 1545 1544 1544 1543 1543 1543 1543 1543 1543 1543 1543 1543 1543 1543 1544 1544 1545 1545 1546 1547 1548
1546 1546 1546 1546 1546 1546 1546 1545 1545 1545 1545 1545 1545 1545 1545 1545 1545 1545 1544 1544 1544 1543 1543 1542 1542 1541 1541 1540 1540 1540 1540 1539 1539 1540 1540 1540 1540 1541 1541 1542 1542 1543 1544
1543 1543 1543 1544 1543 1543 1543 1543 1543 1543 1543 1543 1543 1543 1543 1543 1543 1543 1542 1541 1541 1541 1540 1540 1540 1539 1538 1538 1537 1537 1537 1536 1536 1536 1536 1536 1537 1537 1538 1538 1539 1540 1540
1541 1541 1541 1541 1541 1541 1541 1541 1540 1540 1541 1541 1541 1540 1540 1540 1540 1540 1540 1539 1538 1538 1537 1537 1537 1537 1536 1535 1534 1534 1533 1533 1532 1532 1532 1532 1533 1533 1534 1534 1535 1536 1537
1538 1539 1539 1539 1539 1539 1538 1538 1538 1538 1539 1538 1538 1538 1538 1538 1538 1537 1537 1537 1536 1535 1535 1535 1535 1534 1533 1533 1532 1531 1530 1529 1529 1528 1528 1529 1529 1529 1530 1530 1531 1532 1533
1536 1537 1537 1537 1537 1536 1536 1536 1536 1536 1536 1536 1536 1536 1536 1535 1535 1535 1535 1535 1535 1533 1532 1532 1532 1531 1531 1530 1529 1528 1527 1526 1525 1525 1525 1525 1525 1525 1526 1527 1528 1528 1529
1534 1534 1534 1534 1534 1534 1534 1534 1533 1533 1533 1533 1533 1533 1533 1533 1533 1532 1532 1532 1532 1531 1529 1529 1529 1528 1528 1527 1526 1525 1524 1524 1523 1522 1522 1522 1522 1522 1522 1523 1523 1524 1525
1532 1532 1532 1532 1532 1532 1532 1531 1531 1531 1531 1531 1531 1531 1530 1530 1530 1530 1529 1529 1528 1528 1527 1526 1526 1525 1524 1524 1523 1522 1521 1520 1519 1519 1519 1518 1518 1518 1518 1519 1519 1520 1521
1529 1529 1529 1529 1529 1529 1529 1529 1528 1528 1528 1528 1528 1528 1527 1528 1527 1527 1526 1526 1525 1525 1524 1523 1522 1522 1521 1520 1520 1519 1518 1517 1516 1516 1515 1515 1515 1515 1515 1515 1515 1516 1516
1527 1527 1527 1527 1527 1527 1526 1526 1526 1526 1526 1526 1526 1525 1525 1525 1524 1524 1524 1523 1522 1522 1521 1520 1519 1519 1518 1517 1516 1515 1515 1514 1513 1512 1511 1511 1511 1511 1511 1511 1511 1511 1512
1525 1525 1525 1524 1524 1524 1524 1524 1524 1524 1524 1523 1523 1523 1522 1522 1521 1521 1521 1520 1519 1519 1518 1517 1516 1515 1515 1514 1513 1512 1511 1511 1510 1509 1508 1508 1508 1507 1507 1507 1507 1508 1508
1523 1523 1523 1522 1522 1521 1521 1521 1521 1521 1521 1521 1520 1520 1519 1519 1518 1518 1517 1517 1516 1515 1514 1513 1512 1512 1511 1510 1510 1508 1508 1507 1506 1506 1505 1505 1504 1504 1504 1503 1503 1504 1504
1520 1520 1520 1520 1520 1519 1519 1519 1518 1518 1518 1518 1517 1517 1516 1516 1516 1515 1514 1513 1513 1512 1511 1510 1509 1508 1507 1507 1506 1505 1505 1504 1503 1503 1502 1501 1501 1500 1500 1500 1500 1500 1500
1517 1517 1517 1517 1517 1517 1517 1516 1516 1515 1515 1514 1514 1513 1513 1512 1512 1511 1511 1510 1509 1508 1508 1507 1505 1505 1504 1503 1503 1502 1501 1500 1500 1499 1499 1498 1498 1498 1497 1497 1497 1497 1497
1513 1514 1514 1514 1515 1514 1514 1513 1513 1512 1512 1511 1511 1510 1509 1509 1509 1508 1507 1506 1506 1505 1504 1503 1502 1501 1501 1500 1499 1499 1498 1497 1496 1496 1495 1494 1494 1494 1494 1493 1493 1493 1493
1510 1510 1511 1511 1511 1511 1511 1510 1510 1509 1509 1508 1507 1507 1506 1506 1505 1505 1504 1502 1502 1501 1501 1500 1499 1498 1497 1496 1496 1495 1494 1493 1492 1492 1492 1491 1491 1491 1490 1490 1490 1490 1491
1507 1507 1508 1509 1508 1508 1508 1508 1507 1506 1505 1505 1504 1503 1503 1503 1502 1501 1500 1499 1498 1497 1497 1496 1495 1494 1494 1493 1492 1491 1490 1490 1489 1489 1488 1488 1488 1488 1487 1487 1488 1488 1488